User: anonymous   Login
Location: Unspecified
(0.0000°N, 0.0000°E)
Time: 09:24:00
(UTC+00:00)
Language:

Kitsat-3 - Orbit

View from above orbital plane
View from above orbital plane
View from above satellite
View from above satellite

Ground track
Ground track

The orbit data is extracted from the following two-line orbital elements,

1 25756U 99029A   18023.81211714 +.00000021 +00000-0 +16269-4 0  9994
2 25756 098.4183 309.3734 0012607 285.6763 074.3042 14.53701071989456
Epoch (UTC): 23 January 2018 19:29:26
Eccentricity: 0.0012607
inclination: 98.4183°
perigee height: 704 km
apogee height: 722 km
right ascension of ascending node: 309.3734°
argument of perigee: 285.6763°
revolutions per day: 14.53701071
mean anomaly at epoch: 74.3042°
orbit number at epoch: 98945

The dashed part of the orbit path shows where the satellite is in the earth's shadow,  

DLR